Weather History for KSMO - November, 2012

Change the Weather History Date:

Saturday, November 17, 2012

  Actual Average Record
Temperature  
Mean Temperature 64 °F -  
Max Temperature 68 °F 69 °F 94 °F (1949)
Min Temperature 60 °F 51 °F 37 °F (1935)
Degree Days  
Heating Degree Days 1    
Growing Degree Days 14 (Base 50)    
Moisture  
Dew Point 56 °F    
Average Humidity 81    
Maximum Humidity 88    
Minimum Humidity 61    
Precipitation  
Precipitation 0.09 in - - ()
Sea Level Pressure  
Sea Level Pressure 30.07 in    
Wind  
Wind Speed 4 mph (ESE)    
Max Wind Speed 13 mph    
Max Gust Speed 17 mph    
Visibility 7 miles    
Events Rain    
Averages and records for this station are not official NWS values.
T = Trace of Precipitation, MM = Missing Value Source: NWS Daily Summary

Daily Weather History Graph

Daily Weather History Graph

Search for Another Location

Airport or City:

Trip Planner

Search our weather history database for the weather conditions in past years. The results will help you decide how hot, cold, wet, or windy it might be!

Date:

Astronomy

Nov. 17, 2012 Rise Set
Actual Time 6:28 AM PST 4:48 PM PST
Civil Twilight 6:02 AM PST 5:15 PM PST
Nautical Twilight 5:31 AM PST 5:45 PM PST
Astronomical Twilight 5:01 AM PST 6:15 PM PST
Moon 10:17 AM PST (11/17) 9:03 PM PST (11/17)
Length of Visible Light 11h 13m
Length of Day
10h 19m
Waxing Crescent, 21% of the Moon is Illuminated
Nov 17
Waxing Crescent
Nov 20
First Quarter
Nov 28
Full
Dec 6
Last Quarter
Dec 13
New

Hourly Weather History & Observations

Time (PST) Temp. Dew Point Humidity Pressure Visibility Wind Dir Wind Speed Gust Speed Precip Events Conditions
12:51 AM 62.1 °F 55.9 °F 80% 30.06 in 9.0 mi Calm Calm - N/A   Overcast
1:25 AM 62.6 °F 55.4 °F 77% 30.06 in 8.0 mi NE 3.5 mph - N/A   Overcast
1:51 AM 62.1 °F 55.9 °F 80% 30.05 in 6.0 mi ENE 4.6 mph - 0.00 in   Haze
2:51 AM 62.1 °F 55.9 °F 80% 30.04 in 4.0 mi East 3.5 mph - N/A   Haze
3:14 AM 62.6 °F 55.4 °F 77% 30.04 in 4.0 mi Calm Calm - N/A   Haze
3:36 AM 60.8 °F 55.4 °F 82% 30.04 in 5.0 mi ESE 4.6 mph - N/A   Haze
3:51 AM 61.0 °F 55.9 °F 83% 30.05 in 5.0 mi SE 3.5 mph - 0.00 in Rain Light Rain
3:58 AM 60.8 °F 55.4 °F 82% 30.05 in 6.0 mi ESE 3.5 mph - 0.00 in Rain Light Rain
4:07 AM 60.8 °F 55.4 °F 82% 30.05 in 6.0 mi East 3.5 mph - 0.00 in   Haze
4:25 AM 60.8 °F 55.4 °F 82% 30.05 in 6.0 mi East 3.5 mph - 0.00 in   Haze
4:39 AM 60.8 °F 55.4 °F 82% 30.05 in 6.0 mi ESE 3.5 mph - 0.00 in   Haze
4:51 AM 61.0 °F 55.9 °F 83% 30.05 in 6.0 mi Calm Calm - 0.00 in   Haze
5:08 AM 60.8 °F 55.4 °F 82% 30.05 in 6.0 mi Calm Calm - N/A   Haze
5:16 AM 60.8 °F 55.4 °F 82% 30.05 in 6.0 mi ENE 4.6 mph - N/A   Haze
5:51 AM 60.1 °F 55.0 °F 83% 30.06 in 7.0 mi ENE 3.5 mph - N/A   Overcast
6:00 AM 60.8 °F 55.4 °F 82% 30.06 in 7.0 mi East 3.5 mph - N/A   Overcast
6:17 AM 60.8 °F 55.4 °F 82% 30.07 in 8.0 mi East 4.6 mph - N/A   Mostly Cloudy
6:25 AM 60.8 °F 55.4 °F 82% 30.06 in 8.0 mi East 4.6 mph - N/A   Overcast
6:51 AM 61.0 °F 55.0 °F 81% 30.07 in 6.0 mi East 4.6 mph - N/A   Haze
7:12 AM 60.8 °F 55.4 °F 82% 30.08 in 2.5 mi East 5.8 mph - 0.00 in Rain Light Rain
7:18 AM 60.8 °F 55.4 °F 82% 30.08 in 3.0 mi East 5.8 mph - 0.00 in Rain Light Rain
7:48 AM 60.8 °F 55.4 °F 82% 30.09 in 7.0 mi East 4.6 mph - 0.01 in   Overcast
8:51 AM 62.1 °F 55.9 °F 80% 30.10 in 10.0 mi East 5.8 mph - N/A   Overcast
9:51 AM 64.0 °F 55.9 °F 75% 30.11 in 10.0 mi East 8.1 mph - 0.00 in   Overcast
10:51 AM 66.0 °F 55.0 °F 68% 30.09 in 10.0 mi ESE 12.7 mph 17.3 mph N/A   Overcast
11:51 AM 66.0 °F 55.0 °F 68% 30.07 in 10.0 mi ESE 8.1 mph - 0.00 in   Overcast
12:37 PM 66.2 °F 53.6 °F 64% 30.06 in 10.0 mi SSE 9.2 mph - 0.00 in Rain Light Rain
12:51 PM 68.0 °F 54.0 °F 61% 30.05 in 10.0 mi SSE 9.2 mph - 0.00 in Rain Light Rain
1:21 PM 64.4 °F 55.4 °F 73% 30.05 in 7.0 mi SSE 8.1 mph - 0.00 in Rain Light Rain
1:29 PM 66.2 °F 55.4 °F 68% 30.05 in 10.0 mi SE 5.8 mph - 0.00 in Rain Light Rain
1:47 PM 66.2 °F 55.4 °F 68% 30.04 in 10.0 mi SSW 9.2 mph - 0.00 in   Overcast
2:51 PM 64.9 °F 55.9 °F 73% 30.05 in 10.0 mi SSW 10.4 mph - 0.00 in   Overcast
3:51 PM 64.0 °F 57.9 °F 80% 30.05 in 10.0 mi SSW 6.9 mph - 0.00 in   Overcast
4:21 PM 62.6 °F 57.2 °F 82% 30.05 in 2.0 mi South 6.9 mph - 0.01 in Rain Rain
4:48 PM 62.6 °F 57.2 °F 82% 30.05 in 5.0 mi SSW 5.8 mph - 0.03 in Rain Light Rain
4:51 PM 62.1 °F 57.9 °F 86% 30.05 in 3.0 mi SW 5.8 mph - 0.03 in Rain Light Rain
5:51 PM 61.0 °F 57.0 °F 87% 30.06 in 3.0 mi Calm Calm - 0.00 in Rain Light Rain
6:51 PM 61.0 °F 57.0 °F 87% 30.06 in 2.5 mi Calm Calm - 0.03 in Rain Rain
7:51 PM 61.0 °F 57.0 °F 87% 30.07 in 2.5 mi Calm Calm - 0.02 in Rain Light Rain
8:05 PM 60.8 °F 57.2 °F 88% 30.08 in 3.0 mi ENE 3.5 mph - 0.01 in Rain Light Rain
8:51 PM 61.0 °F 57.0 °F 87% 30.08 in 6.0 mi NE 4.6 mph - 0.01 in   Overcast
8:58 PM 60.8 °F 57.2 °F 88% 30.08 in 7.0 mi NE 4.6 mph - N/A   Overcast
9:07 PM 60.8 °F 57.2 °F 88% 30.09 in 9.0 mi Calm Calm - N/A   Overcast
9:51 PM 61.0 °F 57.0 °F 87% 30.09 in 7.0 mi ENE 3.5 mph - 0.00 in Rain Light Rain
10:22 PM 60.8 °F 57.2 °F 88% 30.09 in 7.0 mi NE 4.6 mph - 0.00 in Rain Light Rain
10:51 PM 61.0 °F 57.0 °F 87% 30.10 in 8.0 mi Variable 3.5 mph - 0.00 in   Overcast
11:07 PM 60.8 °F 57.2 °F 88% 30.10 in 9.0 mi Calm Calm - N/A   Overcast
11:51 PM 61.0 °F 57.0 °F 87% 30.11 in 10.0 mi NNE 3.5 mph - N/A   Overcast